Camarillo, CA

6:03 PM PDT on May 26, 2017 (GMT -0700)
Camarillo

Weather History for KCMA - November, 2013

Change the Weather History Date:

Thursday, November 28, 2013

  Actual Average Record
Temperature  
Mean Temperature 59 °F 56 °F  
Max Temperature 70 °F 68 °F 83 °F (1956)
Min Temperature 47 °F 43 °F 36 °F (1968)
Degree Days  
Heating Degree Days 6 9  
Month to date heating degree days 106 191  
Since 1 July heating degree days 216 314  
Cooling Degree Days 0 0  
Month to date cooling degree days 11 13  
Year to date cooling degree days 634 329  
Growing Degree Days 9 (Base 50)    
Moisture  
Dew Point 46 °F    
Average Humidity 61    
Maximum Humidity 93    
Minimum Humidity 28    
Precipitation  
Precipitation 0.00 in 0.02 in 1.12 in (1985)
Month to date precipitation 0.40 1.25  
Year to date precipitation 2.59 13.10  
Since 1 July precipitation 0.44  
Sea Level Pressure  
Sea Level Pressure 29.97 in    
Wind  
Wind Speed 4 mph (East)    
Max Wind Speed 14 mph    
Max Gust Speed 20 mph    
Visibility 9 miles    
Events      
T = Trace of Precipitation, MM = Missing Value Source: NWS Daily Summary

Daily Weather History Graph

Daily Weather History Graph

Search for Another Location

Airport or City:

Trip Planner

Search our weather history database for the weather conditions in past years. The results will help you decide how hot, cold, wet, or windy it might be!

Date:

Astronomy

Nov. 28, 2013 Rise Set
Actual Time 6:41 AM PST 4:47 PM PST
Civil Twilight 6:14 AM PST 5:14 PM PST
Nautical Twilight 5:43 AM PST 5:45 PM PST
Astronomical Twilight 5:13 AM PST 6:15 PM PST
Moon 2:00 AM PST (11/28) 1:49 PM PST (11/28)
Length of Visible Light 10h 59m
Length of Day
10h 05m
Waning Crescent, 21% of the Moon is Illuminated
Nov 28
Waning Crescent
Dec 2
New
Dec 9
First Quarter
Dec 17
Full
Dec 25
Last Quarter

Hourly Weather History & Observations

Time (PST) Temp. Dew Point Humidity Pressure Visibility Wind Dir Wind Speed Gust Speed Precip Events Conditions
12:29 AM 50.0 °F 48.2 °F 94% 29.91 in 1.0 mi Calm Calm - N/A   Clear
12:33 AM 48.2 °F 48.2 °F 100% 29.91 in 3.0 mi Calm Calm - N/A   Clear
12:55 AM 50.0 °F 48.9 °F 96% 29.93 in 4.0 mi Calm Calm - N/A   Clear
1:55 AM 52.0 °F 46.9 °F 83% 29.93 in 9.0 mi WNW 3.5 mph - N/A   Clear
2:55 AM 51.1 °F 46.9 °F 86% 29.92 in 9.0 mi ENE 3.5 mph - N/A   Clear
3:55 AM 48.9 °F 44.1 °F 83% 29.91 in 10.0 mi Calm Calm - N/A   Clear
4:55 AM 48.0 °F 43.0 °F 83% 29.91 in 10.0 mi Calm Calm - N/A   Clear
5:55 AM 48.9 °F 42.1 °F 77% 29.94 in 10.0 mi Calm Calm - N/A   Clear
6:55 AM 50.0 °F 42.1 °F 74% 29.95 in 10.0 mi East 5.8 mph - N/A   Clear
7:55 AM 54.0 °F 39.9 °F 59% 29.95 in 10.0 mi NE 5.8 mph - N/A   Clear
8:55 AM 57.9 °F 39.9 °F 51% 29.98 in 10.0 mi ENE 5.8 mph - N/A   Mostly Cloudy
9:55 AM 62.1 °F 39.0 °F 43% 29.99 in 10.0 mi ENE 5.8 mph - N/A   Mostly Cloudy
10:55 AM 66.0 °F 37.0 °F 34% 29.98 in 10.0 mi ENE 10.4 mph - N/A   Overcast
11:55 AM 70.0 °F 36.0 °F 29% 29.96 in 10.0 mi East 9.2 mph - N/A   Overcast
12:55 PM 66.0 °F 50.0 °F 56% 29.96 in 10.0 mi South 8.1 mph - N/A   Scattered Clouds
1:55 PM 64.0 °F 51.1 °F 63% 29.96 in 10.0 mi SSE 5.8 mph - N/A   Overcast
2:55 PM 64.9 °F 50.0 °F 58% 29.96 in 10.0 mi Calm Calm - N/A   Overcast
3:55 PM 66.9 °F 43.0 °F 42% 29.97 in 10.0 mi East 9.2 mph - N/A   Overcast
4:55 PM 62.1 °F 53.1 °F 72% 29.98 in 10.0 mi South 3.5 mph - N/A   Overcast
5:55 PM 61.0 °F 54.0 °F 78% 30.00 in 10.0 mi Calm Calm - N/A   Overcast
6:55 PM 61.0 °F 53.1 °F 75% 30.02 in 10.0 mi Calm Calm - N/A   Overcast
7:55 PM 61.0 °F 51.1 °F 70% 30.04 in 10.0 mi SSE 3.5 mph - N/A   Overcast
8:55 PM 64.0 °F 43.0 °F 46% 30.05 in 10.0 mi ESE 6.9 mph - N/A   Overcast
9:55 PM 60.1 °F 51.1 °F 72% 30.06 in 10.0 mi North 3.5 mph - N/A   Overcast
10:55 PM 61.0 °F 45.0 °F 56% 30.06 in 10.0 mi East 6.9 mph - N/A   Overcast
11:55 PM 57.9 °F 45.0 °F 62% 30.06 in 10.0 mi NNE 5.8 mph - N/A   Overcast